owner,sensor,date,latitude,longitude,vertical_datum,direction_of_sea_water_velocity,sea_water_speed,upward_sea_water_velocity,qcFlag 
TABS,ioos:station:wmo:42050:1,2007-03-10T01:30:00Z,28.8425,-94.2433,2.0,322.2871018,8.696941991,-99999.0,'11133222,11111222,99999999' 
TABS,ioos:station:wmo:42050:1,2007-03-10T02:00:00Z,28.8425,-94.2433,2.0,291.8300387,15.05989376,-99999.0,'11111222,11111222,99999999' 
TABS,ioos:station:wmo:42050:1,2007-03-10T02:30:00Z,28.8425,-94.2433,2.0,253.7802331,12.35160313,-99999.0,'11111222,11111222,99999999' 
TABS,ioos:station:wmo:42050:1,2007-03-10T03:00:00Z,28.8425,-94.2433,2.0,26.87697684,10.68409098,-99999.0,'11111222,11111222,99999999' 
TABS,ioos:station:wmo:42050:1,2007-03-10T03:30:00Z,28.8425,-94.2433,2.0,119.7609196,26.4714941,-99999.0,'11111222,11111222,99999999' 
TABS,ioos:station:wmo:42050:1,2007-03-10T04:00:00Z,28.8425,-94.2433,2.0,54.39020562,6.457561459,-99999.0,'11133222,11111222,99999999' 
TABS,ioos:station:wmo:42050:1,2007-03-10T04:30:00Z,28.8425,-94.2433,2.0,118.7334956,13.00086536,-99999.0,'11111222,11111222,99999999' 
TABS,ioos:station:wmo:42050:1,2007-03-10T05:00:00Z,28.8425,-94.2433,2.0,67.50065801,9.146174064,-99999.0,'11133222,11111222,99999999' 
TABS,ioos:station:wmo:42050:1,2007-03-10T05:30:00Z,28.8425,-94.2433,2.0,122.2905364,3.406875401,-99999.0,'11133222,11111222,99999999' 
TABS,ioos:station:wmo:42050:1,2007-03-10T06:00:00Z,28.8425,-94.2433,2.0,117.3487165,16.02068975,-99999.0,'11111222,11111222,99999999' 
TABS,ioos:station:wmo:42050:1,2007-03-10T06:30:00Z,28.8425,-94.2433,2.0,40.17661781,10.67977996,-99999.0,'11111222,11111222,99999999' 
TABS,ioos:station:wmo:42050:1,2007-03-10T07:00:00Z,28.8425,-94.2433,2.0,66.1398806,20.46941133,-99999.0,'11111222,11111222,99999999' 
TABS,ioos:station:wmo:42050:1,2007-03-10T07:30:00Z,28.8425,-94.2433,2.0,127.1790785,8.522124148,-99999.0,'11133222,11111222,99999999' 
TABS,ioos:station:wmo:42050:1,2007-03-10T08:00:00Z,28.8425,-94.2433,2.0,90.86402196,8.620980223,-99999.0,'11133222,11111222,99999999' 
TABS,ioos:station:wmo:42050:1,2007-03-10T08:30:00Z,28.8425,-94.2433,2.0,136.2362995,20.64525369,-99999.0,'11111222,11111222,99999999' 
TABS,ioos:station:wmo:42050:1,2007-03-10T09:00:00Z,28.8425,-94.2433,2.0,107.2230406,15.40057466,-99999.0,'11111222,11111222,99999999' 
TABS,ioos:station:wmo:42050:1,2007-03-10T09:30:00Z,28.8425,-94.2433,2.0,235.3902643,11.40887812,-99999.0,'11111222,11111222,99999999' 
TABS,ioos:station:wmo:42050:1,2007-03-10T10:00:00Z,28.8425,-94.2433,2.0,125.4229271,19.16811154,-99999.0,'11111222,11111222,99999999' 
TABS,ioos:station:wmo:42050:1,2007-03-10T10:30:00Z,28.8425,-94.2433,2.0,191.2456208,17.53671577,-99999.0,'11111222,11111222,99999999' 
TABS,ioos:station:wmo:42050:1,2007-03-10T11:00:00Z,28.8425,-94.2433,2.0,40.66052352,8.410398326,-99999.0,'11133222,11111222,99999999' 
TABS,ioos:station:wmo:42050:1,2007-03-10T11:30:00Z,28.8425,-94.2433,2.0,319.5835084,10.44200172,-99999.0,'11111222,11111222,99999999' 
TABS,ioos:station:wmo:42050:1,2007-03-10T12:00:00Z,28.8425,-94.2433,2.0,143.0092288,9.490021075,-99999.0,'11133222,11111222,99999999' 
TABS,ioos:station:wmo:42050:1,2007-03-10T12:30:00Z,28.8425,-94.2433,2.0,277.5280184,2.824340631,-99999.0,'11133222,11111222,99999999' 
TABS,ioos:station:wmo:42050:1,2007-03-10T13:00:00Z,28.8425,-94.2433,2.0,203.5842359,20.46982413,-99999.0,'11111222,11111222,99999999' 
TABS,ioos:station:wmo:42050:1,2007-03-10T13:30:00Z,28.8425,-94.2433,2.0,233.5641829,4.748136477,-99999.0,'11133222,11111222,99999999' 
TABS,ioos:station:wmo:42050:1,2007-03-10T14:00:00Z,28.8425,-94.2433,2.0,46.40534428,4.901724186,-99999.0,'11133222,11111222,99999999' 
TABS,ioos:station:wmo:42050:1,2007-03-10T14:30:00Z,28.8425,-94.2433,2.0,93.88959248,13.12022103,-99999.0,'11111222,11111222,99999999' 
TABS,ioos:station:wmo:42050:1,2007-03-10T15:00:00Z,28.8425,-94.2433,2.0,143.4956154,22.87846586,-99999.0,'11111222,11111222,99999999' 
TABS,ioos:station:wmo:42050:1,2007-03-10T15:30:00Z,28.8425,-94.2433,2.0,114.9806881,23.93955096,-99999.0,'11111222,11111222,99999999' 
TABS,ioos:station:wmo:42050:1,2007-03-10T16:00:00Z,28.8425,-94.2433,2.0,174.7343217,14.60161635,-99999.0,'11111222,11111222,99999999' 
TABS,ioos:station:wmo:42050:1,2007-03-10T16:30:00Z,28.8425,-94.2433,2.0,187.1247892,17.09198643,-99999.0,'11111222,11111222,99999999' 
TABS,ioos:station:wmo:42050:1,2007-03-10T17:00:00Z,28.8425,-94.2433,2.0,281.5419609,8.246750875,-99999.0,'11133222,11111222,99999999' 
TABS,ioos:station:wmo:42050:1,2007-03-10T17:30:00Z,28.8425,-94.2433,2.0,24.81132809,11.1050439,-99999.0,'11111222,11111222,99999999' 
TABS,ioos:station:wmo:42050:1,2007-03-10T18:00:00Z,28.8425,-94.2433,2.0,136.0629909,10.29017493,-99999.0,'11111222,11111222,99999999' 
TABS,ioos:station:wmo:42050:1,2007-03-10T18:30:00Z,28.8425,-94.2433,2.0,64.05776517,0.822921624,-99999.0,'11133222,11111222,99999999' 
TABS,ioos:station:wmo:42050:1,2007-03-10T19:00:00Z,28.8425,-94.2433,2.0,336.3312596,14.07389783,-99999.0,'11111222,11111222,99999999' 
TABS,ioos:station:wmo:42050:1,2007-03-10T19:30:00Z,28.8425,-94.2433,2.0,77.38156714,9.704395911,-99999.0,'11133222,11111222,99999999' 
TABS,ioos:station:wmo:42050:1,2007-03-10T20:00:00Z,28.8425,-94.2433,2.0,132.2794696,6.555196412,-99999.0,'11133222,11111222,99999999' 
TABS,ioos:station:wmo:42050:1,2007-03-10T20:30:00Z,28.8425,-94.2433,2.0,223.2898743,1.895890292,-99999.0,'11133222,11111222,99999999' 
TABS,ioos:station:wmo:42050:1,2007-03-10T21:00:00Z,28.8425,-94.2433,2.0,40.19815294,28.97286489,-99999.0,'11111222,11111222,99999999' 
TABS,ioos:station:wmo:42050:1,2007-03-10T21:30:00Z,28.8425,-94.2433,2.0,180.3942456,11.62027538,-99999.0,'11111222,11111222,99999999' 
TABS,ioos:station:wmo:42050:1,2007-03-10T22:00:00Z,28.8425,-94.2433,2.0,257.7253386,5.127201966,-99999.0,'11133222,11111222,99999999' 
TABS,ioos:station:wmo:42050:1,2007-03-10T22:30:00Z,28.8425,-94.2433,2.0,73.26996999,7.121439461,-99999.0,'11133222,11111222,99999999' 
TABS,ioos:station:wmo:42050:1,2007-03-10T23:00:00Z,28.8425,-94.2433,2.0,175.7952322,10.63863243,-99999.0,'11111222,11111222,99999999' 
TABS,ioos:station:wmo:42050:1,2007-03-10T23:30:00Z,28.8425,-94.2433,2.0,177.1263578,10.37304198,-99999.0,'11111222,11111222,99999999' 
TABS,ioos:station:wmo:42050:1,2007-03-11T00:00:00Z,28.8425,-94.2433,2.0,183.3515624,11.45960296,-99999.0,'11111222,11111222,99999999' 
TABS,ioos:station:wmo:42050:1,2007-03-11T00:30:00Z,28.8425,-94.2433,2.0,198.4973477,11.5676186,-99999.0,'11111222,11111222,99999999' 
TABS,ioos:station:wmo:42050:1,2007-03-11T01:00:00Z,28.8425,-94.2433,2.0,191.2627512,9.574392931,-99999.0,'11133222,11111222,99999999' 
TABS,ioos:station:wmo:42050:1,2007-03-11T01:30:00Z,28.8425,-94.2433,2.0,206.8016449,9.735923171,-99999.0,'11133222,11111222,99999999' 
TABS,ioos:station:wmo:42050:1,2007-03-11T02:00:00Z,28.8425,-94.2433,2.0,247.4423852,9.150005464,-99999.0,'11133222,11111222,99999999' 
TABS,ioos:station:wmo:42050:1,2007-03-11T02:30:00Z,28.8425,-94.2433,2.0,248.6156231,8.66663141,-99999.0,'11133222,11111222,99999999' 
TABS,ioos:station:wmo:42050:1,2007-03-11T03:00:00Z,28.8425,-94.2433,2.0,242.1853503,11.48717546,-99999.0,'11111222,11111222,99999999' 
TABS,ioos:station:wmo:42050:1,2007-03-11T03:30:00Z,28.8425,-94.2433,2.0,251.4011277,9.970702082,-99999.0,'11133222,11111222,99999999' 
TABS,ioos:station:wmo:42050:1,2007-03-11T04:00:00Z,28.8425,-94.2433,2.0,254.8594138,8.308387328,-99999.0,'11133222,11111222,99999999' 
TABS,ioos:station:wmo:42050:1,2007-03-11T04:30:00Z,28.8425,-94.2433,2.0,276.5602832,8.928454514,-99999.0,'11133222,11111222,99999999' 
TABS,ioos:station:wmo:42050:1,2007-03-11T05:00:00Z,28.8425,-94.2433,2.0,279.9562113,9.543715209,-99999.0,'11133222,11111222,99999999' 
TABS,ioos:station:wmo:42050:1,2007-03-11T05:30:00Z,28.8425,-94.2433,2.0,286.981263,10.71724778,-99999.0,'11111222,11111222,99999999' 
TABS,ioos:station:wmo:42050:1,2007-03-11T06:00:00Z,28.8425,-94.2433,2.0,296.7317594,10.78236523,-99999.0,'11111222,11111222,99999999' 
TABS,ioos:station:wmo:42050:1,2007-03-11T06:30:00Z,28.8425,-94.2433,2.0,297.7362131,9.411338906,-99999.0,'11133222,11111222,99999999' 
TABS,ioos:station:wmo:42050:1,2007-03-11T07:00:00Z,28.8425,-94.2433,2.0,306.1585218,9.660745313,-99999.0,'11133222,11111222,99999999' 
TABS,ioos:station:wmo:42050:1,2007-03-11T07:30:00Z,28.8425,-94.2433,2.0,319.0656143,11.37060245,-99999.0,'11111222,11111222,99999999' 
TABS,ioos:station:wmo:42050:1,2007-03-11T08:00:00Z,28.8425,-94.2433,2.0,325.0511795,9.845531982,-99999.0,'11133222,11111222,99999999' 
TABS,ioos:station:wmo:42050:1,2007-03-11T08:30:00Z,28.8425,-94.2433,2.0,334.9585851,13.96247113,-99999.0,'11111222,11111222,99999999' 
TABS,ioos:station:wmo:42050:1,2007-03-11T09:00:00Z,28.8425,-94.2433,2.0,338.5144262,14.49745495,-99999.0,'11111222,11111222,99999999' 
TABS,ioos:station:wmo:42050:1,2007-03-11T09:30:00Z,28.8425,-94.2433,2.0,343.2906923,15.96409095,-99999.0,'11111222,11111222,99999999' 
TABS,ioos:station:wmo:42050:1,2007-03-11T10:00:00Z,28.8425,-94.2433,2.0,351.5159082,14.64021858,-99999.0,'11111222,11111222,99999999' 
TABS,ioos:station:wmo:42050:1,2007-03-11T10:30:00Z,28.8425,-94.2433,2.0,349.3953014,16.73585672,-99999.0,'11111222,11111222,99999999' 
TABS,ioos:station:wmo:42050:1,2007-03-11T11:00:00Z,28.8425,-94.2433,2.0,358.746965,17.37415609,-99999.0,'11111222,11111222,99999999' 
TABS,ioos:station:wmo:42050:1,2007-03-11T11:30:00Z,28.8425,-94.2433,2.0,353.2677899,16.29234483,-99999.0,'11111222,11111222,99999999' 
TABS,ioos:station:wmo:42050:1,2007-03-11T12:00:00Z,28.8425,-94.2433,2.0,354.622268,16.11091866,-99999.0,'11111222,11111222,99999999' 
TABS,ioos:station:wmo:42050:1,2007-03-11T12:30:00Z,28.8425,-94.2433,2.0,348.5207912,17.23476139,-99999.0,'11111222,11111222,99999999' 
TABS,ioos:station:wmo:42050:1,2007-03-11T13:00:00Z,28.8425,-94.2433,2.0,345.4755789,16.78650053,-99999.0,'11111222,11111222,99999999' 
TABS,ioos:station:wmo:42050:1,2007-03-11T13:30:00Z,28.8425,-94.2433,2.0,345.694855,17.03831564,-99999.0,'11111222,11111222,99999999' 
TABS,ioos:station:wmo:42050:1,2007-03-11T14:00:00Z,28.8425,-94.2433,2.0,344.3855291,15.23216662,-99999.0,'11111222,11111222,99999999' 
TABS,ioos:station:wmo:42050:1,2007-03-11T15:30:00Z,28.8425,-94.2433,2.0,330.6353737,13.09215414,-99999.0,'11111222,11111222,99999999' 
TABS,ioos:station:wmo:42050:1,2007-03-11T16:00:00Z,28.8425,-94.2433,2.0,335.7033624,13.22104761,-99999.0,'11111222,11111222,99999999' 
TABS,ioos:station:wmo:42050:1,2007-03-11T16:30:00Z,28.8425,-94.2433,2.0,349.9633315,6.885375807,-99999.0,'11133222,11111222,99999999' 
TABS,ioos:station:wmo:42050:1,2007-03-11T17:00:00Z,28.8425,-94.2433,2.0,340.1635703,9.695282358,-99999.0,'11133222,11111222,99999999' 
TABS,ioos:station:wmo:42050:1,2007-03-11T17:30:00Z,28.8425,-94.2433,2.0,346.9502124,4.650096773,-99999.0,'11133222,11111222,99999999' 
TABS,ioos:station:wmo:42050:1,2007-03-11T18:00:00Z,28.8425,-94.2433,2.0,307.4056901,2.568112147,-99999.0,'11133222,11111222,99999999' 
TABS,ioos:station:wmo:42050:1,2007-03-11T18:30:00Z,28.8425,-94.2433,2.0,267.7089744,3.252598961,-99999.0,'11133222,11111222,99999999' 
TABS,ioos:station:wmo:42050:1,2007-03-11T19:00:00Z,28.8425,-94.2433,2.0,246.8010428,4.417148401,-99999.0,'11133222,11111222,99999999' 
TABS,ioos:station:wmo:42050:1,2007-03-11T19:30:00Z,28.8425,-94.2433,2.0,257.5600462,5.570780915,-99999.0,'11133222,11111222,99999999' 
TABS,ioos:station:wmo:42050:1,2007-03-11T20:00:00Z,28.8425,-94.2433,2.0,216.133029,3.578295684,-99999.0,'11133222,11111222,99999999' 
TABS,ioos:station:wmo:42050:1,2007-03-11T20:30:00Z,28.8425,-94.2433,2.0,243.1664974,6.690388628,-99999.0,'11133222,11111222,99999999' 
TABS,ioos:station:wmo:42050:1,2007-03-11T21:00:00Z,28.8425,-94.2433,2.0,278.8929488,7.439422021,-99999.0,'11133222,11111222,99999999' 
TABS,ioos:station:wmo:42050:1,2007-03-11T21:30:00Z,28.8425,-94.2433,2.0,277.0222008,8.261967078,-99999.0,'11133222,11111222,99999999' 
TABS,ioos:station:wmo:42050:1,2007-03-11T22:00:00Z,28.8425,-94.2433,2.0,273.0902338,10.94591248,-99999.0,'11111222,11111222,99999999' 
TABS,ioos:station:wmo:42050:1,2007-03-11T22:30:00Z,28.8425,-94.2433,2.0,280.4099884,12.23131228,-99999.0,'11111222,11111222,99999999' 
TABS,ioos:station:wmo:42050:1,2007-03-11T23:00:00Z,28.8425,-94.2433,2.0,277.2668162,14.07302384,-99999.0,'11111222,11111222,99999999' 
TABS,ioos:station:wmo:42050:1,2007-03-11T23:30:00Z,28.8425,-94.2433,2.0,271.4496687,15.02480616,-99999.0,'11111222,11111222,99999999' 
TABS,ioos:station:wmo:42050:1,2007-03-12T00:00:00Z,28.8425,-94.2433,2.0,269.5250918,14.49049689,-99999.0,'11111222,11111222,99999999' 
TABS,ioos:station:wmo:42050:1,2007-03-12T00:30:00Z,28.8425,-94.2433,2.0,261.4760732,15.65288472,-99999.0,'11111222,11111222,99999999' 
TABS,ioos:station:wmo:42050:1,2007-03-12T01:00:00Z,28.8425,-94.2433,2.0,265.4369484,18.22776454,-99999.0,'11111222,11111222,99999999' 
TABS,ioos:station:wmo:42050:1,2007-03-12T01:30:00Z,28.8425,-94.2433,2.0,252.8923841,18.69724311,-99999.0,'11111222,11111222,99999999' 
TABS,ioos:station:wmo:42050:1,2007-03-12T02:00:00Z,28.8425,-94.2433,2.0,260.2127225,21.76677514,-99999.0,'11111222,11111222,99999999' 
TABS,ioos:station:wmo:42050:1,2007-03-12T02:30:00Z,28.8425,-94.2433,2.0,256.687077,23.23434096,-99999.0,'11111222,11111222,99999999' 
TABS,ioos:station:wmo:42050:1,2007-03-12T03:00:00Z,28.8425,-94.2433,2.0,259.4778174,24.09514681,-99999.0,'11111222,11111222,99999999' 
TABS,ioos:station:wmo:42050:1,2007-03-12T03:30:00Z,28.8425,-94.2433,2.0,266.8513765,25.12792272,-99999.0,'11111222,11111222,99999999' 
TABS,ioos:station:wmo:42050:1,2007-03-12T04:00:00Z,28.8425,-94.2433,2.0,263.2558988,22.73731075,-99999.0,'11111222,11111222,99999999' 
TABS,ioos:station:wmo:42050:1,2007-03-12T04:30:00Z,28.8425,-94.2433,2.0,267.5837169,19.92771186,-99999.0,'11111222,11111222,99999999' 
TABS,ioos:station:wmo:42050:1,2007-03-12T05:00:00Z,28.8425,-94.2433,2.0,271.1777463,21.41452077,-99999.0,'11111222,11111222,99999999' 
TABS,ioos:station:wmo:42050:1,2007-03-12T05:30:00Z,28.8425,-94.2433,2.0,273.8565958,20.81712997,-99999.0,'11111222,11111222,99999999' 
TABS,ioos:station:wmo:42050:1,2007-03-12T06:00:00Z,28.8425,-94.2433,2.0,280.0871974,20.21241203,-99999.0,'11111222,11111222,99999999' 
TABS,ioos:station:wmo:42050:1,2007-03-12T06:30:00Z,28.8425,-94.2433,2.0,289.6000078,19.9138143,-99999.0,'11111222,11111222,99999999' 
TABS,ioos:station:wmo:42050:1,2007-03-12T07:00:00Z,28.8425,-94.2433,2.0,294.5473218,18.41426078,-99999.0,'11111222,11111222,99999999' 
TABS,ioos:station:wmo:42050:1,2007-03-12T07:30:00Z,28.8425,-94.2433,2.0,297.1656768,20.06310295,-99999.0,'11111222,11111222,99999999' 
TABS,ioos:station:wmo:42050:1,2007-03-12T08:00:00Z,28.8425,-94.2433,2.0,309.0494488,22.98462312,-99999.0,'11111222,11111222,99999999' 
TABS,ioos:station:wmo:42050:1,2007-03-12T08:30:00Z,28.8425,-94.2433,2.0,303.5894953,26.76987299,-99999.0,'11111222,11111222,99999999' 
TABS,ioos:station:wmo:42050:1,2007-03-12T09:00:00Z,28.8425,-94.2433,2.0,306.4003199,29.50699239,-99999.0,'11111222,11111222,99999999' 
TABS,ioos:station:wmo:42050:1,2007-03-12T09:30:00Z,28.8425,-94.2433,2.0,314.4773211,30.98671005,-99999.0,'11111222,11111222,99999999' 
TABS,ioos:station:wmo:42050:1,2007-03-12T10:00:00Z,28.8425,-94.2433,2.0,315.8992045,30.64977977,-99999.0,'11111222,11111222,99999999' 
TABS,ioos:station:wmo:42050:1,2007-03-12T10:30:00Z,28.8425,-94.2433,2.0,322.1779472,29.59808947,-99999.0,'11111222,11111222,99999999' 
TABS,ioos:station:wmo:42050:1,2007-03-12T11:00:00Z,28.8425,-94.2433,2.0,324.1562249,32.17315651,-99999.0,'11111222,11111222,99999999' 
TABS,ioos:station:wmo:42050:1,2007-03-12T11:30:00Z,28.8425,-94.2433,2.0,324.4839408,28.10984347,-99999.0,'11111222,11111222,99999999' 
TABS,ioos:station:wmo:42050:1,2007-03-12T12:00:00Z,28.8425,-94.2433,2.0,329.4546914,32.66277545,-99999.0,'11111222,11111222,99999999' 
TABS,ioos:station:wmo:42050:1,2007-03-12T12:30:00Z,28.8425,-94.2433,2.0,336.7873293,36.71196671,-99999.0,'11111222,11111222,99999999' 
TABS,ioos:station:wmo:42050:1,2007-03-12T13:00:00Z,28.8425,-94.2433,2.0,352.0031055,26.81073293,-99999.0,'11111222,11111222,99999999' 
TABS,ioos:station:wmo:42050:1,2007-03-12T13:30:00Z,28.8425,-94.2433,2.0,335.0690093,21.01863935,-99999.0,'11111222,11111222,99999999' 
TABS,ioos:station:wmo:42050:1,2007-03-12T14:00:00Z,28.8425,-94.2433,2.0,327.6196085,9.224299431,-99999.0,'11133222,11111222,99999999' 
TABS,ioos:station:wmo:42050:1,2007-03-12T14:30:00Z,28.8425,-94.2433,2.0,290.2914803,6.834105647,-99999.0,'11133222,11111222,99999999' 
TABS,ioos:station:wmo:42050:1,2007-03-12T15:00:00Z,28.8425,-94.2433,2.0,275.8214469,8.775249284,-99999.0,'11133222,11111222,99999999' 
TABS,ioos:station:wmo:42050:1,2007-03-12T15:30:00Z,28.8425,-94.2433,2.0,267.8211316,13.6798867,-99999.0,'11111222,11111222,99999999' 
TABS,ioos:station:wmo:42050:1,2007-03-12T16:00:00Z,28.8425,-94.2433,2.0,273.7487372,11.01355982,-99999.0,'11111222,11111222,99999999' 
TABS,ioos:station:wmo:42050:1,2007-03-12T16:30:00Z,28.8425,-94.2433,2.0,273.9316188,12.68985816,-99999.0,'11111222,11111222,99999999' 
TABS,ioos:station:wmo:42050:1,2007-03-12T17:00:00Z,28.8425,-94.2433,2.0,267.7688841,15.67187608,-99999.0,'11111222,11111222,99999999' 
TABS,ioos:station:wmo:42050:1,2007-03-12T17:30:00Z,28.8425,-94.2433,2.0,274.2809199,14.87148278,-99999.0,'11111222,11111222,99999999' 
TABS,ioos:station:wmo:42050:1,2007-03-12T18:00:00Z,28.8425,-94.2433,2.0,280.8000985,17.3981522,-99999.0,'11111222,11111222,99999999' 
TABS,ioos:station:wmo:42050:1,2007-03-12T18:30:00Z,28.8425,-94.2433,2.0,272.0274999,21.20326862,-99999.0,'11111222,11111222,99999999' 
TABS,ioos:station:wmo:42050:1,2007-03-12T19:00:00Z,28.8425,-94.2433,2.0,271.8767311,18.01966148,-99999.0,'11111222,11111222,99999999' 
TABS,ioos:station:wmo:42050:1,2007-03-12T19:30:00Z,28.8425,-94.2433,2.0,278.0286942,20.69280551,-99999.0,'11111222,11111222,99999999' 
TABS,ioos:station:wmo:42050:1,2007-03-12T20:00:00Z,28.8425,-94.2433,2.0,258.1819615,20.36157656,-99999.0,'11111222,11111222,99999999' 
TABS,ioos:station:wmo:42050:1,2007-03-12T20:30:00Z,28.8425,-94.2433,2.0,266.1961209,21.5574813,-99999.0,'11111222,11111222,99999999' 
TABS,ioos:station:wmo:42050:1,2007-03-12T21:00:00Z,28.8425,-94.2433,2.0,267.2056683,22.97731272,-99999.0,'11111222,11111222,99999999' 
TABS,ioos:station:wmo:42050:1,2007-03-12T21:30:00Z,28.8425,-94.2433,2.0,269.0230433,22.88332362,-99999.0,'11111222,11111222,99999999' 
TABS,ioos:station:wmo:42050:1,2007-03-12T22:00:00Z,28.8425,-94.2433,2.0,264.2734455,25.65802993,-99999.0,'11111222,11111222,99999999' 
TABS,ioos:station:wmo:42050:1,2007-03-12T22:30:00Z,28.8425,-94.2433,2.0,264.4749085,25.75965838,-99999.0,'11111222,11111222,99999999' 
TABS,ioos:station:wmo:42050:1,2007-03-12T23:00:00Z,28.8425,-94.2433,2.0,265.3455103,27.36021381,-99999.0,'11111222,11111222,99999999' 
TABS,ioos:station:wmo:42050:1,2007-03-12T23:30:00Z,28.8425,-94.2433,2.0,260.3675505,23.30859069,-99999.0,'11111222,11111222,99999999' 
TABS,ioos:station:wmo:42050:1,2007-03-13T00:00:00Z,28.8425,-94.2433,2.0,260.7646257,23.61610044,-99999.0,'11111222,11111222,99999999' 
TABS,ioos:station:wmo:42050:1,2007-03-13T00:30:00Z,28.8425,-94.2433,2.0,266.1539764,22.96170072,-99999.0,'11111222,11111222,99999999' 
TABS,ioos:station:wmo:42050:1,2007-03-13T01:00:00Z,28.8425,-94.2433,2.0,261.3745611,21.93809928,-99999.0,'11111222,11111222,99999999' 
TABS,ioos:station:wmo:42050:1,2007-03-13T01:30:00Z,28.8425,-94.2433,2.0,247.4430941,22.96693711,-99999.0,'11111222,11111222,99999999' 
TABS,ioos:station:wmo:42050:1,2007-03-13T02:00:00Z,28.8425,-94.2433,2.0,247.3776558,20.87615386,-99999.0,'11111222,11111222,99999999' 
TABS,ioos:station:wmo:42050:1,2007-03-13T02:30:00Z,28.8425,-94.2433,2.0,239.1243596,19.99332889,-99999.0,'11111222,11111222,99999999' 
TABS,ioos:station:wmo:42050:1,2007-03-13T03:00:00Z,28.8425,-94.2433,2.0,233.0502607,15.85401526,-99999.0,'11111222,11111222,99999999' 
TABS,ioos:station:wmo:42050:1,2007-03-13T03:30:00Z,28.8425,-94.2433,2.0,230.562437,17.72579194,-99999.0,'11111222,11111222,99999999' 
TABS,ioos:station:wmo:42050:1,2007-03-13T04:00:00Z,28.8425,-94.2433,2.0,219.6438718,21.36303817,-99999.0,'11111222,11111222,99999999' 
TABS,ioos:station:wmo:42050:1,2007-03-13T04:30:00Z,28.8425,-94.2433,2.0,211.5418688,24.12422019,-99999.0,'11111222,11111222,99999999' 
TABS,ioos:station:wmo:42050:1,2007-03-13T05:00:00Z,28.8425,-94.2433,2.0,209.6155449,25.88115337,-99999.0,'11111222,11111222,99999999' 
TABS,ioos:station:wmo:42050:1,2007-03-13T05:30:00Z,28.8425,-94.2433,2.0,210.5163595,26.15261555,-99999.0,'11111222,11111222,99999999' 
TABS,ioos:station:wmo:42050:1,2007-03-13T06:00:00Z,28.8425,-94.2433,2.0,211.5569871,27.64877032,-99999.0,'11111222,11111222,99999999' 
TABS,ioos:station:wmo:42050:1,2007-03-13T06:30:00Z,28.8425,-94.2433,2.0,214.068587,26.84807628,-99999.0,'11111222,11111222,99999999' 
TABS,ioos:station:wmo:42050:1,2007-03-13T07:00:00Z,28.8425,-94.2433,2.0,220.5297932,25.31363467,-99999.0,'11111222,11111222,99999999' 
TABS,ioos:station:wmo:42050:1,2007-03-13T07:30:00Z,28.8425,-94.2433,2.0,227.9814793,24.73980598,-99999.0,'11111222,11111222,99999999' 
TABS,ioos:station:wmo:42050:1,2007-03-13T08:00:00Z,28.8425,-94.2433,2.0,228.9330798,24.84261057,-99999.0,'11111222,11111222,99999999' 
TABS,ioos:station:wmo:42050:1,2007-03-13T08:30:00Z,28.8425,-94.2433,2.0,235.1144037,27.25835101,-99999.0,'11111222,11111222,99999999' 
TABS,ioos:station:wmo:42050:1,2007-03-13T09:00:00Z,28.8425,-94.2433,2.0,238.7786285,33.99307724,-99999.0,'11111222,11111222,99999999' 
TABS,ioos:station:wmo:42050:1,2007-03-13T09:30:00Z,28.8425,-94.2433,2.0,241.8205588,36.35947469,-99999.0,'11111222,11111222,99999999' 
TABS,ioos:station:wmo:42050:1,2007-03-13T10:00:00Z,28.8425,-94.2433,2.0,253.1706726,40.61960118,-99999.0,'11111222,11111222,99999999' 
TABS,ioos:station:wmo:42050:1,2007-03-13T10:30:00Z,28.8425,-94.2433,2.0,253.834267,46.87326423,-99999.0,'11111222,11111222,99999999' 
TABS,ioos:station:wmo:42050:1,2007-03-13T11:00:00Z,28.8425,-94.2433,2.0,251.5408201,45.57474959,-99999.0,'11111222,11111222,99999999' 
TABS,ioos:station:wmo:42050:1,2007-03-13T11:30:00Z,28.8425,-94.2433,2.0,260.5122034,45.07656265,-99999.0,'11111222,11111222,99999999' 
TABS,ioos:station:wmo:42050:1,2007-03-13T12:00:00Z,28.8425,-94.2433,2.0,271.6685594,28.5120834,-99999.0,'11111222,11111222,99999999' 
TABS,ioos:station:wmo:42050:1,2007-03-13T12:30:00Z,28.8425,-94.2433,2.0,272.1142549,26.29789535,-99999.0,'11111222,11111222,99999999' 
TABS,ioos:station:wmo:42050:1,2007-03-13T13:00:00Z,28.8425,-94.2433,2.0,280.4794598,23.53248818,-99999.0,'11111222,11111222,99999999' 
TABS,ioos:station:wmo:42050:1,2007-03-13T13:30:00Z,28.8425,-94.2433,2.0,286.97518,24.69592072,-99999.0,'11111222,11111222,99999999' 
TABS,ioos:station:wmo:42050:1,2007-03-13T14:00:00Z,28.8425,-94.2433,2.0,286.3407907,21.71722128,-99999.0,'11111222,11111222,99999999' 
TABS,ioos:station:wmo:42050:1,2007-03-13T14:30:00Z,28.8425,-94.2433,2.0,295.5036461,22.20349522,-99999.0,'11111222,11111222,99999999' 
TABS,ioos:station:wmo:42050:1,2007-03-13T15:00:00Z,28.8425,-94.2433,2.0,298.6449575,20.08864854,-99999.0,'11111222,11111222,99999999' 
TABS,ioos:station:wmo:42050:1,2007-03-13T15:30:00Z,28.8425,-94.2433,2.0,301.1274331,18.04858443,-99999.0,'11111222,11111222,99999999' 
TABS,ioos:station:wmo:42050:1,2007-03-13T16:00:00Z,28.8425,-94.2433,2.0,305.1138076,15.07308197,-99999.0,'11111222,11111222,99999999' 
TABS,ioos:station:wmo:42050:1,2007-03-13T16:30:00Z,28.8425,-94.2433,2.0,298.2614208,16.6212665,-99999.0,'11111222,11111222,99999999' 
TABS,ioos:station:wmo:42050:1,2007-03-13T17:00:00Z,28.8425,-94.2433,2.0,302.1405006,17.12431312,-99999.0,'11111222,11111222,99999999' 
TABS,ioos:station:wmo:42050:1,2007-03-13T17:30:00Z,28.8425,-94.2433,2.0,308.0805708,17.13782367,-99999.0,'11111222,11111222,99999999' 
TABS,ioos:station:wmo:42050:1,2007-03-13T18:00:00Z,28.8425,-94.2433,2.0,300.5205347,13.29153866,-99999.0,'11111222,11111222,99999999' 